Location: Vancouver
(49.2500°N, 123.1330°W)
Time: 15:30:39
(UTC-07:00)

Oscar 11 - Visible Passes

Search period start: 26 May 2016 00:00
Search period end: 05 June 2016 00:00
Orbit: 614 x 627 km, 97.8° (Epoch: 26 May)

Date Brightness Start Highest point End Pass type
(mag) Time Alt. Az. Time Alt. Az. Time Alt. Az.
26 May 9.8 23:09:51 10° WSW 23:11:29 12° W 23:13:08 10° WNW visible
27 May 7.4 21:47:56 10° S 21:52:13 67° WSW 21:56:32 10° NNW visible
28 May 8.1 22:05:37 10° S 22:09:44 44° W 22:13:53 10° NNW visible
29 May 8.7 22:23:29 10° SSW 22:27:17 30° W 22:31:08 10° NNW visible
30 May 9.3 22:41:37 10° SW 22:44:54 21° W 22:48:11 10° NW visible
31 May 9.6 23:00:10 10° WSW 23:02:33 14° W 23:04:56 10° NW visible
02 Jun 7.7 21:56:39 10° S 22:00:51 54° W 22:05:08 10° NNW visible
03 Jun 8.4 22:14:24 10° SSW 22:18:24 36° W 22:22:25 10° NNW visible
04 Jun 9.0 22:32:24 10° SSW 22:35:58 25° W 22:39:35 10° NW visible
